Theta_e
279 279 279 279 280 281 283 285 286 287 289 292 294 295 296 297 297 296 294 294 294 295 295 294 294 296 299 302 303 303 306 314 316 316 317 317 316 317 317 316 316 316 315 314 313 313 313 313 313 312 312 312 311 311 310 310 310 309 309 308 309 310 310 311 312 311 310 311 313 314 314 313 312 312 312 312 312 310 306 301 298 297 298 299 299
278 278 278 279 279 279 280 282 284 286 288 290 292 294 296 296 296 297 296 294 294 295 295 295 294 295 298 301 303 303 305 311 315 315 316 316 316 316 316 316 315 315 315 314 314 313 313 312 312 312 313 313 312 311 310 309 309 309 309 308 308 307 308 309 311 311 310 310 311 313 313 313 312 312 312 312 312 309 302 297 297 298 299 299 300
277 277 277 278 278 278 279 281 282 284 286 289 290 291 294 295 296 296 297 296 295 295 295 295 294 294 297 300 302 303 303 308 314 316 315 316 316 316 316 315 314 314 315 315 314 314 313 312 311 312 312 312 313 312 311 310 309 309 309 309 308 307 306 308 309 310 310 309 309 311 312 312 312 312 312 311 311 306 299 297 298 299 300 301 302
276 276 276 277 277 278 278 279 280 282 284 287 288 290 292 294 295 295 296 296 296 296 295 295 294 294 295 299 302 303 303 305 311 315 315 315 316 316 316 315 314 314 314 314 314 314 314 314 313 312 312 312 313 313 312 311 310 310 310 309 309 307 304 306 308 308 308 307 307 308 310 312 312 312 312 309 304 300 297 298 299 300 301 303 304
275 275 276 276 277 277 278 279 279 280 282 284 286 288 290 292 294 294 295 296 296 296 296 295 294 294 295 298 300 302 304 305 309 314 315 315 315 316 316 316 315 315 315 314 314 314 314 314 314 314 313 313 313 313 313 312 311 310 310 309 309 307 303 304 306 306 306 306 305 305 307 309 310 310 310 307 300 297 298 299 300 302 303 304 304
274 274 275 276 276 277 278 278 279 279 280 282 284 286 288 290 293 294 295 296 296 296 296 294 294 293 294 297 300 301 304 304 306 312 315 315 315 316 316 316 316 316 316 315 315 314 314 314 314 314 313 313 314 313 312 312 311 310 309 309 308 306 304 304 305 305 305 305 304 304 304 306 308 308 305 302 298 297 299 300 301 302 303 304 303
274 274 274 275 275 276 277 278 278 279 279 280 281 283 285 288 290 292 294 295 295 295 295 294 293 293 293 296 299 300 303 304 305 309 314 314 315 315 315 316 316 316 316 316 316 316 315 315 314 314 313 312 312 313 312 311 311 310 309 309 309 307 305 304 304 304 304 304 304 304 304 303 304 303 300 297 297 298 299 300 301 302 302 302 302
273 273 274 274 275 275 276 277 278 278 279 279 280 280 282 285 288 290 291 293 294 294 294 293 293 293 293 295 298 300 302 304 304 307 312 314 314 315 315 315 316 316 316 316 316 316 316 315 314 314 313 312 311 312 311 311 310 309 309 309 309 308 305 304 305 304 303 303 303 303 303 301 300 299 298 297 298 299 300 301 302 303 302 301 301
273 273 273 273 274 275 275 276 276 277 278 279 279 280 280 282 285 287 288 290 291 292 292 292 292 293 293 294 297 299 301 303 304 306 311 314 314 314 315 315 316 316 315 315 316 316 315 314 314 314 314 313 311 311 311 310 309 308 309 309 309 307 306 305 305 304 303 303 303 302 301 299 298 297 297 298 299 300 300 301 303 304 303 301 300
273 273 273 273 273 274 274 275 275 276 277 278 279 279 279 280 282 284 286 287 289 291 292 292 292 293 293 293 296 298 300 303 304 305 309 313 314 314 314 315 315 315 315 315 315 315 315 315 315 315 314 313 311 311 311 310 307 305 306 307 308 308 307 306 305 304 303 301 302 301 299 298 298 298 298 299 300 300 301 302 303 303 302 301 300
273 273 273 273 273 273 273 274 274 275 276 277 278 279 279 279 280 282 283 285 288 290 291 292 293 293 293 292 295 298 300 303 305 304 307 313 314 313 314 314 315 315 315 315 315 315 315 315 315 315 314 313 313 312 312 310 307 305 304 304 305 306 307 307 306 305 304 301 300 300 300 299 299 299 300 300 300 301 303 304 304 303 302 301 301
273 272 272 273 273 273 273 273 274 275 275 276 277 278 279 279 279 280 281 283 286 288 289 291 292 293 293 292 294 297 300 302 304 304 306 311 314 313 314 314 314 315 315 315 315 315 315 315 315 315 315 315 314 314 314 312 309 305 304 305 304 304 305 306 306 306 305 302 300 299 300 300 300 300 301 301 302 303 304 304 304 303 303 303 302
272 272 272 272 272 272 273 273 273 274 275 276 277 278 279 279 279 279 280 282 284 286 288 290 291 292 293 293 293 296 299 301 304 304 306 310 313 313 313 314 314 314 315 315 315 315 315 315 316 316 316 315 315 314 313 313 310 308 306 306 306 306 305 305 305 305 305 303 301 300 300 300 300 301 303 304 305 305 304 304 304 303 303 303 304
272 272 272 272 272 272 272 273 273 274 274 275 277 278 279 279 279 280 280 281 283 285 288 290 291 292 293 293 293 295 299 301 303 304 306 310 313 313 314 313 313 314 314 314 314 314 315 316 316 316 315 315 315 314 313 312 311 310 309 308 307 307 307 307 306 306 305 304 302 301 301 301 301 303 304 306 307 307 307 307 307 305 304 304 304
271 271 271 271 271 271 272 272 272 273 273 273 275 278 279 280 280 280 280 280 282 285 287 289 290 292 293 293 293 295 298 300 302 304 306 309 312 313 313 313 313 314 314 314 314 314 315 316 316 315 314 315 315 315 312 311 309 308 309 309 308 307 306 306 307 307 306 305 303 302 301 302 302 303 304 305 306 308 309 310 309 307 304 302 301
270 270 270 270 270 271 271 271 271 272 272 272 274 276 278 280 280 280 280 281 283 285 287 288 290 291 293 293 293 295 298 300 302 304 306 309 312 312 313 313 313 313 313 314 314 315 315 315 315 315 315 314 315 314 312 309 307 307 308 309 308 307 306 305 306 307 306 305 303 302 302 302 302 302 302 304 305 306 307 307 305 304 302 300 299
270 269 269 269 269 270 270 270 270 271 271 272 273 275 277 279 279 280 280 282 284 286 287 288 289 290 292 292 293 295 298 300 302 304 306 309 312 312 312 312 312 313 313 314 314 314 315 315 315 315 315 314 315 315 312 308 307 308 309 308 307 306 304 303 304 307 307 306 304 302 301 301 301 301 301 303 303 304 305 304 303 303 301 299 298
269 269 268 269 269 269 269 269 270 270 270 271 272 274 275 277 279 280 281 282 285 287 288 288 289 290 291 292 294 296 298 300 302 304 307 309 312 312 312 311 312 312 312 313 314 314 314 315 315 315 315 314 315 316 314 311 310 311 311 309 306 304 301 301 303 305 306 306 303 301 301 300 300 301 302 302 302 303 304 305 307 306 303 301 301
267 267 268 268 268 268 268 269 270 270 271 272 273 274 275 277 279 280 281 283 286 288 290 290 291 292 292 293 295 297 298 301 303 305 307 309 311 312 312 311 311 312 312 313 313 313 314 314 314 315 315 314 315 315 315 314 313 312 312 310 308 305 303 303 303 304 304 304 302 300 300 300 300 300 301 301 302 302 304 306 308 307 304 302 303
266 267 268 268 268 269 270 270 271 272 273 274 275 275 276 277 279 281 282 284 287 289 292 292 292 293 293 295 296 298 299 301 303 305 307 310 312 312 311 311 311 312 312 313 313 313 313 313 313 314 314 314 315 315 315 314 314 313 312 311 309 308 306 305 303 303 302 302 301 301 300 300 300 300 300 300 301 301 302 304 305 306 305 303 301
267 267 268 269 270 271 273 273 273 275 276 277 277 277 277 278 280 282 284 286 289 291 292 292 292 293 294 295 297 299 300 302 304 306 308 310 312 312 312 312 312 312 312 313 313 313 313 313 314 314 314 313 314 314 314 314 314 314 313 312 311 309 307 304 302 301 301 300 300 300 300 300 300 299 299 299 299 300 301 302 303 305 306 305 302
268 269 270 272 273 275 275 276 276 278 280 279 279 279 279 280 282 284 285 287 290 291 291 291 292 293 295 296 298 300 301 303 304 306 308 310 312 313 312 313 313 313 313 313 313 314 314 314 314 314 313 313 313 313 313 314 314 314 314 314 312 311 310 306 301 298 298 298 298 299 300 300 299 299 299 298 298 298 299 301 302 303 305 306 305
270 272 274 275 277 277 278 279 281 282 283 282 281 281 282 283 285 286 287 288 289 290 291 292 293 294 295 297 299 300 301 303 304 306 309 311 312 313 313 313 313 313 313 313 313 314 314 314 314 314 313 313 312 312 312 313 314 314 314 314 313 313 312 310 306 300 298 298 298 298 298 299 299 299 298 298 297 297 299 302 303 302 304 305 303
273 275 277 278 279 280 281 282 283 284 285 285 284 283 284 285 286 287 288 288 289 290 291 293 294 295 296 297 299 300 301 302 304 307 309 311 312 313 313 313 313 313 313 313 313 313 314 314 314 313 313 313 313 312 312 312 313 314 314 315 314 312 309 308 309 307 302 299 298 298 297 297 297 298 297 297 296 297 300 303 303 302 303 303 301
275 277 278 279 280 282 284 284 284 285 286 287 287 287 287 287 287 288 289 289 290 291 293 294 295 295 296 298 299 300 301 302 304 306 309 310 312 312 313 313 313 313 313 312 312 312 313 313 313 313 313 313 313 312 312 311 311 311 312 313 314 312 308 307 308 307 303 300 299 298 297 297 297 297 297 296 296 297 300 301 301 301 303 302 300
275 277 279 280 280 281 283 284 285 286 287 287 288 289 289 289 290 290 291 291 292 293 294 294 295 295 296 298 299 300 301 301 303 306 308 309 310 311 312 313 313 312 312 312 312 312 312 313 313 313 313 313 312 311 311 311 311 310 310 309 310 311 310 309 308 306 303 301 299 298 298 299 300 299 297 296 296 297 299 301 301 302 304 303 300
274 276 278 279 279 281 282 283 284 286 287 286 286 288 289 290 291 292 293 293 294 294 294 295 295 296 296 298 299 300 300 301 303 305 307 309 309 310 311 312 312 312 311 311 311 311 312 312 312 312 312 311 310 309 309 310 310 309 308 307 307 309 311 311 311 310 308 306 304 303 302 302 301 298 296 296 297 298 300 302 302 303 305 304 300
275 276 277 278 278 279 280 281 282 285 286 287 286 287 288 290 291 292 293 294 294 295 295 295 295 296 297 298 298 299 300 301 302 304 306 307 308 309 310 311 311 311 311 311 311 311 311 311 311 312 311 310 309 309 308 309 309 309 308 307 307 308 310 310 311 310 310 310 309 307 304 300 298 297 296 296 297 299 301 302 302 303 306 304 300
276 275 276 277 276 276 278 279 280 282 284 287 288 288 288 289 291 292 294 295 295 295 295 296 296 296 297 297 298 299 300 301 302 303 304 306 307 307 308 308 309 310 310 310 310 310 310 310 310 311 311 310 309 308 308 308 309 309 309 308 307 307 308 308 307 307 307 307 307 304 302 299 298 297 297 297 298 300 301 302 302 303 304 304 302
276 275 275 275 275 274 275 277 279 280 282 285 287 290 291 291 291 293 294 295 296 295 296 296 296 296 296 297 298 299 299 300 301 302 303 305 306 306 306 306 307 308 308 309 309 309 309 309 309 310 310 310 309 309 309 308 308 309 309 308 307 306 306 306 306 306 306 306 305 305 304 303 302 301 299 298 298 300 301 302 303 304 304 304 302
275 274 273 273 273 273 273 274 276 278 280 282 285 287 290 292 292 293 295 296 296 296 296 296 296 296 296 297 298 299 299 300 301 302 303 304 305 306 307 307 308 308 309 309 309 309 309 309 309 309 309 309 310 310 309 308 308 308 308 307 306 305 305 305 305 305 306 306 306 305 305 305 306 305 303 299 298 299 301 302 303 304 305 305 303
274 273 272 271 272 273 273 273 274 275 277 280 282 284 287 290 292 294 295 296 296 296 296 296 296 296 296 297 297 298 299 300 300 301 302 303 304 305 307 308 308 308 308 308 308 308 308 308 308 308 309 309 309 309 309 309 308 308 307 307 306 305 305 305 305 305 305 306 306 305 305 305 306 308 307 304 300 299 300 301 303 305 306 304 301
274 273 270 270 272 273 273 273 274 273 274 276 278 280 283 285 288 291 294 295 295 295 295 295 295 296 296 297 298 298 299 299 300 301 301 302 303 304 305 306 307 307 307 307 307 307 307 307 307 307 308 308 308 308 308 308 308 307 307 307 306 307 306 305 304 304 305 305 306 306 306 306 306 306 307 307 304 302 301 302 304 304 304 302 300
275 273 270 269 271 272 272 273 273 272 272 274 275 277 280 282 284 288 291 292 293 293 293 293 293 295 296 297 297 298 299 299 300 300 301 301 302 302 304 305 305 306 306 306 306 306 306 306 306 306 307 307 307 307 307 307 307 307 306 306 306 306 306 304 303 304 305 305 305 305 305 305 305 304 304 305 305 304 302 302 304 304 303 302 300
275 275 273 271 271 272 272 272 271 271 272 274 275 276 278 280 282 284 286 287 288 289 290 291 292 293 295 296 297 297 298 299 299 300 300 301 301 302 302 302 302 303 304 306 306 306 306 306 306 306 306 307 307 306 306 306 305 305 305 304 304 303 303 303 303 305 305 305 304 304 304 303 303 303 303 304 305 305 304 303 304 305 304 303 301
275 275 273 272 272 272 272 272 271 270 271 273 274 275 276 278 279 281 283 284 285 287 288 289 290 292 294 296 296 297 297 298 298 299 299 300 300 300 301 301 301 301 302 303 304 305 305 306 306 306 305 306 306 306 305 305 304 304 304 304 303 302 302 302 303 303 304 304 304 303 302 301 301 302 302 302 303 306 307 306 305 305 305 303 301
275 274 272 271 272 273 273 273 272 271 272 273 274 274 275 276 277 279 281 282 283 285 286 288 290 292 293 294 294 294 295 296 297 298 298 299 299 299 299 300 300 300 301 302 303 303 303 304 304 305 305 305 305 305 304 304 304 303 303 303 303 302 302 302 303 303 303 303 303 302 301 301 301 301 301 302 303 304 305 304 303 304 304 302 299
274 273 272 270 271 273 274 274 274 273 273 274 274 274 274 275 276 277 278 279 280 282 283 284 286 287 287 288 289 291 292 294 295 296 296 296 296 296 296 297 297 298 298 299 300 301 302 302 302 303 304 304 304 304 304 304 303 303 303 302 302 302 302 302 302 302 302 302 302 301 301 301 300 300 300 301 302 302 303 302 301 302 301 299 297
275 274 273 272 272 272 273 273 273 273 273 273 273 273 274 275 275 276 276 277 278 279 279 280 280 281 282 284 287 289 291 292 291 291 291 292 292 293 294 295 296 296 296 297 298 298 299 299 300 300 301 301 302 302 303 303 303 303 302 302 301 301 301 301 301 301 301 301 301 300 299 299 300 299 299 299 300 300 301 301 301 301 300 298 297
275 274 274 273 272 272 272 272 272 272 271 270 270 271 272 273 273 273 273 274 275 276 277 277 275 275 276 279 283 286 288 287 286 287 288 289 290 291 292 293 293 294 294 295 296 296 297 297 297 298 298 299 299 300 300 301 301 301 301 301 300 300 300 300 300 301 301 301 301 300 300 300 300 299 298 298 298 298 299 299 300 300 299 298 297
275 274 274 273 273 272 272 272 272 271 270 270 270 270 270 270 271 271 272 272 272 272 273 274 273 272 273 275 278 283 284 284 283 285 286 287 288 289 290 290 290 291 292 293 293 294 295 295 296 296 297 297 297 297 298 298 299 299 299 299 299 299 299 299 299 299 300 300 300 300 299 299 299 298 298 298 298 297 296 297 297 297 296 295 294
274 274 274 273 273 273 272 272 272 272 272 271 271 270 270 270 270 270 271 271 271 271 271 272 272 273 274 274 277 280 282 281 281 282 283 284 285 286 287 287 287 288 289 290 291 291 292 293 293 294 295 295 295 295 296 296 296 297 298 298 298 298 298 298 298 298 298 298 298 298 298 297 297 297 296 296 296 295 294 295 295 294 293 292 292
273 273 273 273 273 273 272 272 272 272 273 272 272 271 271 271 271 271 271 270 270 270 271 271 271 273 273 274 277 279 279 279 279 279 280 280 281 282 283 283 284 285 286 287 288 288 289 291 291 292 292 293 293 293 294 294 294 294 295 295 296 296 296 297 297 297 297 297 296 296 296 295 295 294 294 293 293 292 292 292 292 292 291 291 291
271 272 272 272 272 272 272 272 272 272 272 272 272 272 272 272 272 272 272 271 271 271 271 271 271 272 272 274 275 276 276 276 276 277 277 278 278 279 279 280 281 282 283 284 285 286 287 288 289 289 290 291 291 292 292 292 293 293 293 293 294 294 294 294 295 295 295 295 295 294 294 293 293 292 292 292 291 291 290 290 290 289 289 289 289
270 270 270 270 271 271 271 271 271 271 272 272 272 272 272 272 272 272 272 272 271 271 271 271 271 271 272 272 272 273 273 273 274 274 275 275 276 276 277 278 279 280 281 281 282 283 284 285 285 286 287 287 288 289 289 290 290 291 291 291 292 292 292 292 293 293 293 293 293 293 293 292 292 291 291 291 290 290 289 288 288 288 287 288 288
269 269 269 269 269 269 269 269 270 270 270 270 270 270 270 271 271 271 271 271 271 271 271 271 271 271 272 272 272 272 272 272 272 272 272 273 273 274 275 276 277 278 279 279 280 281 282 282 282 283 283 284 284 284 285 286 287 288 289 289 289 290 290 290 291 291 291 291 291 291 291 291 291 290 290 290 289 288 288 287 287 287 287 287 286
268 268 268 268 268 268 268 268 268 269 269 269 269 269 269 269 269 270 270 270 270 270 270 270 271 271 271 271 271 271 271 272 272 272 272 272 272 273 273 274 275 275 276 277 278 279 280 280 280 280 281 282 282 282 283 283 284 285 286 286 286 287 287 288 288 289 289 289 289 289 290 289 289 289 288 288 288 287 287 287 287 287 286 286 286
267 267 267 268 267 267 268 268 268 268 268 268 268 268 268 268 268 268 268 269 269 269 269 269 269 270 270 270 270 270 270 271 271 271 272 272 272 273 273 273 273 274 274 275 276 276 277 277 278 279 279 280 280 280 280 281 282 283 283 284 284 284 285 285 286 286 287 287 287 287 287 287 287 287 287 286 286 286 285 285 285 285 286 286 286
267 267 267 267 267 267 267 267 267 267 267 267 267 268 268 268 268 268 268 268 268 268 268 268 268 268 268 269 269 269 270 270 270 270 271 271 272 272 273 273 273 274 274 274 274 274 274 275 276 277 277 278 278 279 278 279 279 280 281 281 281 282 283 284 284 284 285 285 285 285 285 285 285 285 285 285 284 284 284 284 284 284 284 284 284
266 266 266 266 266 266 266 266 266 266 267 267 267 267 267 267 267 267 268 268 268 267 267 267 267 267 268 268 268 268 269 269 269 269 269 270 270 271 271 272 272 273 273 273 274 274 274 274 275 275 276 276 276 277 277 277 277 277 277 278 279 280 281 282 282 282 283 283 283 283 283 283 284 284 283 283 283 283 283 283 283 283 283 283 282
266 266 266 266 266 266 266 266 266 266 266 266 266 266 267 267 267 267 267 267 267 267 267 267 267 267 267 267 267 267 268 268 268 268 268 269 269 269 270 270 271 271 271 272 272 273 273 274 274 274 275 275 275 276 276 276 275 275 276 276 277 278 279 279 280 280 280 281 281 282 282 282 282 282 282 282 282 281 281 281 281 281 281 280 280
Wind_Speed
37 38 38 39 41 40 39 40 39 39 38 36 37 38 38 39 39 37 36 36 36 36 36 36 34 32 32 33 36 41 42 46 53 53 55 59 59 60 61 63 65 64 64 66 66 65 64 62 62 61 60 58 57 56 54 51 51 53 53 52 52 50 49 48 44 41 41 43 47 48 47 44 43 42 41 36 33 33 33 31 31 32 33 32 31
37 39 40 40 40 39 37 35 34 33 35 36 34 33 36 39 37 36 36 37 36 36 36 36 36 34 32 32 35 39 41 44 53 55 55 59 60 60 62 64 66 66 65 67 67 66 65 64 64 64 62 59 58 56 54 51 49 50 50 49 49 48 47 46 44 43 42 43 46 48 48 46 43 42 41 38 36 35 34 33 33 33 33 32 31
37 39 40 40 40 39 37 34 33 34 37 38 35 30 30 34 36 35 36 36 36 35 36 37 38 37 33 32 34 38 40 41 50 57 56 58 61 61 63 64 65 67 67 67 68 67 67 66 65 65 63 60 60 59 56 53 51 51 50 48 47 45 44 45 45 45 44 43 45 47 48 48 45 43 39 37 37 37 35 35 35 34 33 31 30
36 38 40 41 39 39 38 35 35 36 35 39 40 34 27 27 30 33 35 37 38 36 36 37 38 38 35 32 33 37 39 38 45 58 59 59 63 63 64 65 66 67 67 67 68 68 68 68 67 67 66 64 62 60 59 56 53 52 51 49 48 45 43 45 46 45 45 43 42 44 47 48 47 45 41 39 38 37 36 36 35 34 32 30 29
36 37 38 40 39 38 38 36 36 39 37 36 41 40 34 28 26 28 33 37 39 38 36 36 38 38 36 32 33 37 39 37 39 55 61 59 63 65 64 66 66 67 68 67 68 69 69 68 67 66 66 66 64 61 59 57 55 53 52 50 49 47 43 43 45 45 45 44 42 41 43 46 47 45 43 42 40 38 37 36 35 33 31 30 29
37 38 37 38 39 39 38 36 36 39 40 39 39 41 40 36 30 26 28 34 37 36 35 35 36 36 34 31 32 36 41 35 34 49 62 60 61 65 64 66 67 66 67 67 67 70 69 67 65 65 65 65 65 63 59 58 56 54 53 51 49 48 45 43 44 44 44 43 42 40 42 45 47 45 44 43 43 43 40 36 34 32 32 32 31
38 38 38 38 39 39 38 37 36 37 38 39 40 40 39 40 38 31 26 29 33 34 34 34 35 34 32 30 30 34 40 38 32 43 61 62 61 65 65 65 67 65 67 68 67 69 71 68 66 67 67 67 66 64 61 59 57 55 54 53 50 49 48 45 44 43 43 43 41 40 43 45 46 45 44 42 42 43 42 40 37 35 34 33 34
38 38 39 40 39 39 38 37 36 36 36 36 38 40 40 39 41 38 31 27 29 31 31 32 34 33 31 30 29 31 38 42 35 39 57 64 61 65 66 66 67 66 66 68 68 70 71 70 68 68 69 69 67 66 63 60 59 57 55 54 52 51 50 47 45 44 43 44 42 41 44 46 46 45 44 44 43 42 42 42 40 39 38 36 35
36 37 39 40 40 40 39 38 37 37 36 37 37 38 40 41 42 42 38 34 31 30 30 32 34 33 31 30 29 29 35 44 38 36 52 65 62 64 67 66 67 66 65 67 67 69 71 70 69 70 71 70 69 67 64 60 59 59 58 56 55 53 51 49 48 46 45 45 45 43 45 48 48 47 47 47 46 45 44 43 41 41 41 39 37
35 36 37 38 40 41 41 41 40 38 36 37 38 38 40 43 44 43 43 42 40 36 35 36 38 37 33 31 30 28 32 43 41 36 48 65 64 63 66 66 66 67 65 66 67 68 70 70 70 71 70 70 69 67 64 61 60 59 59 59 58 56 54 52 50 48 48 48 48 48 48 49 50 49 47 46 47 47 46 44 42 42 42 41 40
37 38 38 38 40 42 43 42 41 40 38 38 40 40 40 41 43 44 45 45 45 42 40 41 43 42 37 33 32 30 31 39 43 37 45 63 66 63 66 66 65 67 66 67 68 68 69 70 69 69 68 66 66 64 63 61 59 58 58 58 59 59 58 56 54 53 51 51 52 52 52 51 50 48 46 46 48 48 46 45 46 46 46 46 45
41 42 41 40 41 41 42 41 41 41 40 39 41 41 41 41 42 44 46 45 45 45 44 44 45 44 40 35 34 33 32 36 44 40 44 61 67 63 65 66 64 66 66 67 69 69 69 68 66 66 66 65 63 62 61 61 59 58 57 57 57 58 59 59 59 58 56 55 55 56 55 53 50 47 47 47 47 47 46 48 48 47 48 49 49
42 43 43 42 42 41 40 41 42 42 40 40 41 41 42 42 41 42 44 44 43 44 45 46 46 45 42 37 36 35 33 35 43 43 44 59 68 64 64 65 64 65 66 67 69 69 69 69 66 64 65 64 62 61 60 60 58 57 56 56 56 57 58 58 59 59 58 57 58 59 57 54 52 50 49 48 46 47 50 51 50 49 49 49 48
43 44 44 43 42 41 40 40 41 41 41 40 40 41 42 42 40 39 40 41 40 42 45 46 47 46 44 40 38 37 35 34 42 44 44 57 69 65 63 64 63 65 66 66 67 67 68 69 67 66 66 65 65 63 61 60 59 56 55 55 56 56 56 57 57 57 56 55 57 58 56 55 54 52 51 50 49 49 49 49 49 49 49 47 46
43 43 44 44 42 40 40 40 40 42 44 41 38 39 41 42 40 37 37 37 36 38 41 45 47 47 46 42 40 38 36 34 41 44 44 57 69 65 63 64 62 64 65 66 67 66 66 67 67 68 67 65 66 64 62 63 62 58 56 56 56 55 55 56 57 57 57 55 55 55 54 53 52 51 51 51 49 47 46 46 47 48 49 48 47
43 43 42 43 43 41 41 42 42 43 44 42 37 37 39 40 39 37 35 34 33 33 37 41 44 46 47 43 41 40 37 34 41 43 43 57 68 66 63 64 62 63 65 65 66 66 66 66 67 67 66 64 65 63 61 62 62 59 57 56 56 56 55 56 57 58 58 55 52 52 52 52 52 52 51 49 48 48 47 47 49 49 50 50 48
42 43 43 44 45 45 44 43 45 45 43 41 38 36 37 38 38 36 34 33 30 30 33 37 40 43 45 43 41 41 37 34 42 43 44 57 68 66 64 63 62 63 64 65 65 64 65 66 66 66 65 64 63 61 60 61 61 57 55 55 56 57 56 55 56 56 56 54 51 50 50 51 52 52 50 47 47 49 50 50 49 50 50 50 49
42 43 46 48 48 47 46 44 45 45 42 40 39 36 35 36 36 33 33 31 29 29 31 33 35 37 39 40 40 40 37 34 42 42 44 57 67 67 65 62 61 63 63 63 63 62 63 64 64 66 65 64 63 60 59 62 61 59 57 56 57 58 57 56 56 55 54 52 51 50 49 50 50 50 49 47 46 49 51 49 47 49 52 52 51
46 46 48 50 49 50 50 49 48 46 42 39 36 33 33 35 34 31 31 30 27 27 28 28 28 29 32 34 36 37 34 35 40 40 45 58 65 66 65 62 60 62 62 61 61 60 60 61 62 63 64 64 63 61 60 62 63 61 60 59 60 61 60 58 58 57 55 54 53 52 50 49 48 48 48 47 48 48 48 47 47 50 53 53 53
51 51 51 51 50 49 49 48 46 43 39 35 32 30 30 32 32 30 29 27 25 25 24 23 24 26 28 31 34 33 31 34 36 38 47 59 65 64 64 63 61 61 61 61 60 59 58 59 59 59 59 60 62 61 61 62 61 60 60 61 64 64 61 59 58 58 57 56 56 55 54 52 50 50 49 49 49 48 46 47 48 48 48 50 54
54 54 53 52 49 47 45 43 40 36 32 29 27 24 24 27 29 28 26 25 23 23 23 23 25 26 27 29 30 28 29 31 32 37 48 59 64 63 63 63 61 60 60 60 59 58 58 58 56 55 55 55 56 58 59 58 57 57 58 60 63 62 60 59 58 57 56 57 57 58 58 57 55 54 52 51 50 48 46 47 48 46 44 47 52
56 55 53 51 47 43 40 38 35 31 26 23 20 18 20 23 25 23 23 23 21 20 22 23 24 25 27 27 26 25 27 27 29 38 50 58 62 62 62 61 59 58 58 58 58 57 56 55 54 52 52 52 52 54 55 55 55 57 58 57 58 58 58 58 58 57 57 57 58 60 61 60 59 57 55 54 52 49 47 47 48 46 43 45 50
55 52 50 47 43 39 36 33 30 27 24 19 15 16 19 21 20 20 21 21 19 19 21 21 21 23 25 24 22 22 24 23 27 39 53 59 60 59 59 58 56 56 56 56 57 55 53 52 49 47 48 49 49 51 53 54 55 56 57 56 56 57 58 57 57 57 58 58 60 62 63 63 62 60 58 57 54 51 49 49 48 46 43 45 50
52 50 48 46 42 37 34 30 27 25 23 18 14 15 19 20 20 21 20 19 19 19 19 18 18 20 22 20 19 19 20 21 26 38 52 60 59 57 57 55 52 52 52 53 53 53 51 49 46 44 43 43 44 47 50 52 54 54 54 54 55 57 58 58 58 59 60 62 63 65 65 65 64 62 60 59 55 52 51 50 49 47 45 47 50
51 48 47 45 41 38 34 30 27 24 22 18 14 15 18 20 22 22 20 19 19 18 16 16 17 18 19 18 17 18 18 20 27 37 48 56 56 55 53 51 48 48 49 50 49 48 47 45 42 41 40 40 41 45 48 51 52 53 53 53 54 56 58 58 58 60 62 64 65 66 65 65 64 62 60 58 56 54 54 52 50 48 46 47 49
51 47 45 44 42 39 36 33 29 24 21 19 17 16 18 20 21 22 21 20 19 18 17 16 16 16 16 15 16 17 17 20 26 34 42 48 51 51 49 47 46 45 45 44 43 41 41 40 38 38 38 37 39 42 45 47 49 50 52 53 54 56 58 59 60 61 62 63 63 63 63 63 62 60 59 58 58 58 57 55 52 49 48 49 51
50 47 46 45 42 39 36 34 31 26 22 20 20 20 19 19 21 22 21 20 20 19 19 17 16 16 14 13 13 16 17 19 24 30 36 40 43 46 47 46 47 45 43 41 40 38 38 37 36 36 36 35 36 37 39 42 44 47 51 53 54 56 58 60 62 63 63 62 62 62 62 61 61 60 60 60 60 60 58 56 54 52 51 51 53
49 47 46 44 43 40 37 34 32 28 23 19 19 20 20 20 20 22 22 21 21 21 20 19 17 15 13 11 12 15 18 21 24 27 32 35 38 42 46 48 49 48 44 42 40 39 38 37 37 37 37 36 36 37 39 41 42 44 50 54 55 57 58 59 61 64 64 63 62 61 61 60 60 60 60 61 60 60 59 57 56 54 53 53 55
48 47 45 45 44 41 37 34 31 29 26 21 17 15 16 18 19 19 19 18 20 20 20 19 18 15 13 11 11 15 20 23 25 26 28 32 35 38 41 44 45 45 43 42 40 39 39 40 41 42 42 40 39 40 42 44 44 44 49 54 56 58 59 60 61 63 63 61 60 59 59 59 59 59 60 61 62 61 60 60 58 56 55 55 56
48 46 45 45 44 42 39 36 32 28 26 24 21 16 12 12 14 16 15 13 15 17 18 18 17 15 13 12 12 14 19 23 24 24 24 28 32 35 36 37 39 41 41 40 39 39 40 41 42 43 44 43 42 42 43 46 48 49 50 53 57 59 61 62 62 62 61 61 60 59 60 60 60 60 61 62 63 63 62 62 61 59 58 58 58
47 45 45 45 43 41 39 36 33 30 27 24 22 21 17 13 9 10 10 9 9 13 15 15 15 14 13 12 11 12 15 19 22 24 23 24 27 31 33 33 37 41 42 40 40 42 43 44 44 45 45 45 45 46 46 48 50 52 52 54 57 59 61 61 61 61 60 61 61 60 60 61 62 62 62 62 62 64 64 63 62 60 59 59 60
44 44 45 44 42 40 38 36 34 32 30 26 22 21 20 18 13 8 6 5 3 4 7 10 11 12 12 12 11 11 13 16 18 20 20 21 23 28 31 31 33 39 43 43 42 44 45 45 47 48 49 49 50 50 50 51 52 54 54 55 57 60 61 62 61 60 60 61 61 61 61 62 62 63 63 63 63 64 64 64 63 62 61 61 61
42 43 44 43 41 39 37 35 34 34 32 29 26 24 22 21 19 13 7 5 4 1 2 6 10 12 12 11 11 10 11 13 16 17 17 18 20 23 28 31 32 36 40 42 42 44 45 46 46 47 48 49 50 50 51 52 53 54 55 56 58 60 61 61 60 59 59 61 62 62 62 63 64 64 63 63 63 64 64 64 64 63 62 62 62
42 42 42 41 40 39 37 35 36 36 34 31 30 29 27 26 24 19 13 10 8 7 5 4 7 10 11 11 12 11 10 11 13 14 15 17 18 19 23 29 33 36 39 41 44 45 46 47 47 47 48 48 49 50 51 52 53 53 55 56 57 58 59 60 59 59 60 61 61 61 62 63 63 64 63 63 63 64 65 66 66 66 65 64 63
42 42 41 41 40 39 37 37 38 38 36 34 34 34 33 32 30 27 24 22 20 17 14 11 8 5 8 11 13 13 11 11 12 12 12 13 14 15 20 27 32 36 39 42 45 47 48 48 49 49 49 49 49 50 51 51 51 52 53 53 54 54 56 57 59 60 61 61 61 61 62 62 63 64 64 64 64 65 66 67 68 68 67 65 64
43 43 43 42 41 40 39 40 40 40 39 38 38 38 37 36 36 34 32 29 27 24 21 18 15 10 7 9 10 12 13 13 14 14 13 12 11 13 19 25 30 35 39 41 43 45 46 48 49 49 48 48 48 48 49 49 50 50 51 52 52 52 53 56 58 60 61 61 61 61 61 61 62 63 63 63 65 67 68 68 68 68 68 67 65
43 43 43 43 42 41 41 41 42 42 42 42 43 43 42 41 40 38 37 36 34 32 29 24 19 15 12 11 11 12 12 14 16 16 16 15 16 18 22 25 28 32 37 40 41 42 43 44 45 46 46 46 46 46 47 47 47 47 48 49 50 52 53 55 57 58 59 60 60 61 62 62 63 63 63 64 65 66 67 66 66 66 67 66 64
42 42 42 43 43 42 41 42 43 44 45 46 47 48 48 48 46 44 44 43 41 39 39 36 33 29 25 20 17 14 12 13 14 13 13 14 16 18 21 22 23 25 29 33 36 38 38 39 41 42 43 44 45 45 45 45 45 45 46 47 49 50 52 53 54 55 57 59 60 61 61 61 61 62 62 64 65 66 66 66 65 65 64 64 64
41 41 42 43 44 44 44 43 44 45 47 48 49 50 50 51 51 50 49 47 45 45 45 45 44 41 35 27 19 12 10 12 14 15 15 14 12 12 13 15 16 17 19 22 26 28 29 30 32 34 36 38 40 41 42 43 43 44 44 45 46 48 50 51 52 53 54 56 57 58 58 59 59 60 61 62 63 64 66 66 65 65 64 64 65
39 41 42 43 44 46 47 47 47 48 50 51 51 52 52 52 52 53 52 51 50 49 48 48 49 47 42 36 29 21 19 24 27 24 22 20 18 14 12 12 12 12 13 15 17 20 22 23 24 25 26 28 30 33 35 37 39 40 41 42 44 46 48 49 50 51 52 53 54 55 56 57 58 59 60 61 62 63 63 64 64 64 64 65 65
36 38 40 41 42 44 46 47 48 49 51 52 53 53 53 53 53 53 52 53 53 52 50 50 50 48 45 42 37 31 29 32 32 29 28 27 24 20 18 17 15 14 13 13 13 14 16 18 19 21 22 22 23 25 27 30 33 35 37 39 41 43 45 46 47 48 50 51 52 53 54 55 56 57 59 61 61 60 60 61 61 61 61 61 61
34 35 37 38 40 42 44 45 46 47 48 50 51 52 53 54 53 53 53 53 53 52 51 50 49 48 46 45 41 37 36 37 35 33 32 30 27 25 23 21 19 18 16 14 13 11 11 12 14 16 17 19 20 22 23 25 28 30 33 36 38 40 42 43 44 45 46 48 49 51 51 52 53 55 56 57 57 57 57 58 58 58 59 58 58
31 33 34 36 37 39 41 42 43 45 45 46 48 49 50 51 52 52 52 52 52 52 51 51 49 48 47 46 43 41 41 41 39 37 35 33 31 29 26 23 22 20 18 16 15 13 11 10 10 11 12 14 16 18 20 22 24 26 28 30 32 34 37 39 41 42 44 45 46 47 48 49 49 50 52 52 52 52 53 53 54 55 57 57 56
29 30 32 33 34 36 37 38 40 42 42 43 44 45 47 48 48 49 49 50 50 50 50 50 50 49 48 47 46 45 45 44 42 41 39 37 35 33 29 26 23 21 19 18 16 13 11 10 10 9 10 11 13 14 16 18 20 22 24 25 27 29 31 33 35 37 39 41 43 44 45 46 46 46 47 48 48 49 49 49 49 51 52 54 54
28 29 31 32 33 34 35 36 37 38 39 40 42 43 44 45 45 46 46 46 47 47 47 47 48 48 48 48 48 47 47 46 44 43 41 39 37 35 32 29 27 25 23 21 18 15 14 13 11 10 9 9 10 11 12 14 16 18 20 21 23 25 27 29 31 32 33 36 38 40 42 43 43 44 44 45 45 45 45 45 45 45 47 49 50
28 29 30 31 32 34 34 35 36 37 38 40 41 42 42 42 43 43 44 44 44 44 44 45 45 46 46 46 46 46 45 44 44 43 42 40 39 37 34 32 30 28 26 24 21 19 18 17 15 13 12 11 10 8 8 9 10 12 15 16 18 20 22 24 25 26 28 30 33 36 38 39 40 40 41 41 41 40 40 41 43 43 44 44 44
26 28 29 30 31 32 33 34 35 36 37 39 40 40 40 41 41 41 42 42 42 43 43 43 43 43 43 43 43 42 41 41 40 40 39 39 38 37 36 34 33 31 29 27 25 23 22 22 20 18 16 15 15 13 10 9 7 7 8 9 10 12 14 17 19 20 22 25 27 30 33 34 35 35 36 36 36 36 36 38 40 42 41 40 39
25 26 27 28 29 30 31 32 33 34 35 36 37 37 38 38 39 39 40 40 40 41 41 41 41 40 40 40 39 39 38 37 37 37 36 35 35 34 34 33 33 32 32 31 30 29 27 25 23 22 20 19 19 19 18 14 11 9 8 7 6 5 6 9 11 13 16 19 21 24 26 27 28 29 30 30 31 31 31 33 36 37 36 35 35
25 26 27 27 28 29 30 31 32 33 33 34 34 34 35 36 36 37 37 37 38 38 38 38 38 38 38 37 37 36 36 35 35 35 34 33 32 32 31 31 30 30 30 30 31 31 30 28 26 25 24 23 23 23 24 22 19 17 15 13 10 7 5 5 7 8 11 13 15 16 17 19 20 22 23 23 23 23 24 25 27 28 28 28 27
23 24 25 26 27 28 28 29 30 31 31 31 32 33 33 33 34 34 34 35 35 35 35 35 35 35 35 35 35 34 34 34 34 34 33 32 31 30 30 29 28 28 28 28 28 28 28 27 27 26 26 26 25 25 25 27 26 24 22 19 16 13 11 9 8 8 7 9 10 11 12 13 15 16 17 17 17 18 18 19 19 19 20 20 20
21 22 23 24 25 26 26 27 28 29 30 30 31 31 31 32 32 32 32 32 32 32 32 32 32 32 32 32 32 31 31 31 31 31 31 30 30 29 29 29 28 28 27 26 26 26 25 25 25 24 24 24 25 25 25 26 26 24 22 21 20 19 17 16 15 14 12 10 9 9 9 10 11 12 13 13 13 14 15 15 14 14 14 15 15
Wind_Direction
305 304 302 305 303 297 290 283 284 291 294 292 291 286 277 275 277 280 283 285 287 293 295 299 301 293 280 268 261 263 254 228 216 216 213 209 209 208 206 205 203 203 203 202 201 201 203 204 204 205 207 206 206 207 207 207 208 210 210 211 212 211 211 211 208 203 205 209 213 211 208 209 211 212 214 215 218 222 223 220 214 210 208 206 205
305 305 303 302 304 305 300 295 294 289 282 284 293 293 283 276 277 279 281 282 282 286 292 295 299 297 283 267 258 259 259 238 218 216 215 210 208 207 204 203 202 202 201 201 201 202 203 204 206 208 210 210 208 207 206 204 206 209 210 212 214 215 215 214 211 208 207 209 212 214 211 210 210 213 215 217 220 221 220 215 210 207 207 206 205
305 304 304 302 301 303 304 303 300 288 275 277 289 297 290 281 279 279 280 281 281 283 289 292 295 297 287 268 255 254 259 247 223 215 216 212 208 206 203 201 201 201 200 200 201 202 202 204 207 209 211 213 213 211 209 207 208 211 213 215 216 217 218 216 213 212 213 212 212 213 213 212 213 214 215 216 219 219 216 212 209 207 206 206 208
306 304 303 302 301 301 302 302 301 297 284 276 280 288 291 288 285 283 278 278 280 283 288 291 291 294 290 273 256 248 253 253 229 214 213 212 208 206 204 202 202 202 202 201 201 202 204 205 207 209 211 214 215 213 211 209 209 211 213 215 216 217 217 215 214 216 216 215 214 213 213 213 214 215 214 212 213 214 212 210 208 208 207 207 208
306 305 303 302 301 299 300 300 301 303 300 287 279 278 279 281 283 284 280 277 278 280 285 289 288 290 291 279 261 247 243 250 239 217 210 210 208 207 206 204 204 205 204 204 203 204 205 207 208 209 210 212 213 212 211 209 208 210 211 212 213 214 214 213 213 217 219 218 215 211 208 208 209 209 211 210 207 205 206 208 208 207 207 206 205
306 305 303 301 300 299 298 299 299 302 305 300 290 280 274 272 272 275 278 277 278 277 279 285 284 285 290 283 266 251 238 243 248 224 211 208 208 207 207 206 205 206 205 205 205 205 205 205 207 208 209 210 211 211 210 209 208 208 208 209 210 211 211 211 212 215 218 219 218 211 204 203 204 203 205 208 207 204 201 201 203 206 205 203 200
306 305 303 300 298 297 296 297 297 299 301 301 299 291 279 271 267 267 269 273 278 278 275 278 279 280 287 284 270 256 239 237 251 234 214 208 208 207 206 206 205 206 206 205 206 206 204 204 204 206 207 208 211 211 209 208 208 208 208 208 208 209 209 209 211 213 215 216 217 213 205 202 202 201 199 202 206 205 202 199 198 201 203 202 200
306 304 304 301 298 296 295 295 295 295 296 295 295 295 289 277 268 265 264 265 273 279 275 273 275 276 284 285 273 262 243 234 246 241 217 208 208 207 205 205 205 205 205 206 206 205 203 203 204 206 207 209 211 211 209 209 208 207 207 208 208 208 208 209 211 212 213 213 213 211 207 202 200 198 195 195 198 201 205 206 204 201 201 201 202
306 305 304 301 300 298 296 295 294 292 292 291 289 291 291 287 275 266 263 261 261 270 273 272 274 275 281 286 276 267 248 232 237 243 221 209 209 208 205 206 205 204 204 204 204 204 203 203 204 205 207 209 211 212 213 214 212 209 208 207 207 207 207 208 210 210 210 210 209 207 203 199 198 197 195 197 200 202 203 205 207 205 201 199 200
304 304 302 300 300 299 297 296 295 292 290 288 286 285 287 289 283 271 266 262 257 258 263 267 272 273 279 286 279 270 255 232 230 241 226 211 209 208 206 206 206 204 203 202 202 203 204 204 205 206 208 210 210 212 214 215 215 213 210 208 208 208 207 207 208 209 208 207 206 205 201 199 200 201 202 204 204 203 202 202 205 205 202 199 199
303 301 300 299 300 300 298 296 296 294 290 286 284 284 284 286 286 279 272 265 257 255 258 260 266 269 273 284 282 271 261 237 227 238 230 214 209 208 206 205 206 205 204 203 202 203 204 205 205 206 209 211 211 211 213 214 214 213 212 211 210 210 209 208 208 209 209 207 206 206 205 203 203 205 207 207 205 204 205 206 205 204 203 202 202
303 300 298 298 298 299 298 297 296 294 291 287 284 284 285 284 285 283 278 269 260 258 258 256 260 264 267 279 281 270 264 244 228 234 233 215 209 209 207 205 205 205 205 205 204 203 203 204 205 206 210 213 213 213 213 214 214 213 212 213 212 213 214 213 211 210 210 208 207 207 208 206 204 204 205 206 206 207 207 207 207 206 206 206 206
303 301 300 299 298 297 297 296 295 294 292 290 286 283 284 283 283 281 279 276 266 259 258 255 257 261 262 273 279 270 265 251 229 230 233 217 208 208 207 205 206 207 206 206 205 204 203 204 205 208 211 214 215 215 215 214 214 214 214 214 215 214 215 216 215 214 213 211 209 209 209 207 204 203 204 205 205 206 206 206 208 209 209 209 210
305 302 301 301 299 298 297 295 294 293 292 292 288 283 281 281 281 278 278 280 271 259 256 254 255 258 260 268 277 270 265 254 229 226 232 219 208 207 207 206 207 208 207 206 204 204 203 204 206 208 210 213 214 214 215 215 215 214 214 215 216 215 215 216 217 217 217 216 215 213 210 208 207 207 206 205 206 206 206 207 210 211 212 212 212
305 304 302 301 300 299 297 295 293 293 293 291 286 282 280 278 278 277 275 276 271 261 257 255 254 257 259 265 273 270 266 253 228 223 230 219 208 206 207 206 206 207 206 205 204 204 205 206 207 209 210 212 213 213 213 214 215 215 215 216 216 215 215 216 217 218 220 221 221 219 215 212 212 212 210 208 208 210 211 211 211 211 210 209 209
304 305 304 303 304 303 301 298 296 296 297 293 283 277 278 276 276 276 273 270 267 263 259 255 253 256 258 263 269 269 268 251 225 220 227 218 208 206 206 205 206 206 206 206 206 206 207 207 207 210 211 212 214 214 214 213 213 214 215 217 217 217 217 218 219 221 222 223 224 223 221 217 216 216 215 213 211 211 211 210 209 208 207 205 206
305 305 305 307 310 310 308 304 303 304 303 297 286 274 273 274 274 273 270 267 266 263 258 255 253 255 258 262 266 268 269 247 221 218 224 216 208 205 204 203 204 205 205 206 207 207 208 208 208 211 213 214 215 215 216 215 213 213 216 217 218 218 218 218 220 222 223 224 225 225 224 221 219 219 219 218 215 214 211 208 208 209 208 204 205
310 306 307 311 314 315 313 309 308 308 304 298 290 278 270 271 273 271 268 266 265 262 259 256 254 255 258 260 263 270 268 241 218 218 222 214 207 204 203 202 203 203 204 206 207 207 210 211 212 213 214 216 218 217 217 217 216 216 217 217 217 217 217 217 218 218 220 222 223 224 225 223 222 223 223 222 221 220 218 215 214 213 211 209 210
317 315 316 319 319 319 318 314 312 310 305 300 295 282 270 270 273 270 265 263 263 261 259 256 254 255 256 257 264 271 262 234 218 219 220 213 208 205 202 200 202 203 203 205 207 208 210 212 214 215 217 219 221 221 220 220 218 216 216 216 217 218 217 216 215 215 216 217 219 221 222 222 223 225 227 226 225 225 226 226 224 219 214 213 213
323 325 326 324 320 320 319 316 314 312 307 303 296 281 270 270 271 265 260 264 267 262 257 256 260 261 258 262 270 267 248 226 218 218 216 212 208 206 202 200 202 203 203 205 207 207 209 212 214 216 217 220 222 222 222 222 221 219 217 217 218 219 218 218 216 216 216 217 218 219 221 223 224 225 226 227 227 227 229 229 229 227 223 219 215
333 334 333 330 328 327 327 324 321 318 311 305 296 282 272 272 270 265 266 273 270 259 255 259 265 264 261 268 273 258 233 223 219 216 214 210 208 206 203 202 204 205 204 206 207 208 209 212 214 215 217 219 221 222 222 221 222 222 221 221 220 219 218 218 219 219 218 218 219 220 221 222 224 225 226 226 227 227 228 229 230 231 232 229 224
339 338 336 336 336 335 334 333 331 328 321 312 301 291 281 275 272 272 279 281 270 257 259 263 263 264 267 274 271 246 226 223 221 216 212 210 207 206 205 204 205 206 205 205 208 210 211 212 213 214 216 218 220 222 223 222 222 223 225 226 224 222 219 218 217 217 218 219 220 220 221 221 222 223 224 225 227 227 228 229 230 230 231 234 234
341 340 341 344 345 343 343 344 343 338 333 325 314 299 282 273 275 282 282 278 270 264 264 263 263 270 275 275 266 242 225 224 223 215 210 208 208 208 207 206 206 207 207 207 208 210 212 212 213 213 215 217 220 221 222 223 223 224 226 226 224 223 220 218 216 216 215 217 219 220 221 221 221 222 223 225 226 227 228 230 231 230 230 231 233
344 345 347 350 350 350 351 353 352 348 343 336 319 294 276 269 275 281 278 274 273 271 268 267 270 278 281 276 264 246 230 225 224 216 209 207 208 207 206 206 208 209 210 211 211 211 212 213 214 214 214 216 220 222 222 223 224 226 226 224 223 221 218 216 216 215 213 213 216 218 220 221 221 222 224 226 227 227 229 229 228 227 228 228 227
349 351 351 351 353 356 357 358 357 354 351 343 320 292 281 279 278 278 278 278 276 272 270 272 276 281 285 278 262 249 238 229 223 215 209 207 206 205 205 207 209 210 210 212 212 213 213 214 215 215 214 216 219 221 222 223 224 225 225 224 223 221 218 216 216 215 213 213 214 215 218 220 222 224 226 227 227 227 227 225 223 223 225 225 224
351 354 354 353 355 357 358 358 357 356 355 349 331 307 294 290 285 282 280 279 277 275 273 274 277 280 281 275 259 249 244 236 224 214 208 206 205 203 204 206 209 210 211 213 214 214 214 215 216 216 215 216 218 220 222 224 224 225 225 223 221 220 219 218 216 216 215 214 215 215 217 220 222 224 226 226 226 225 225 223 220 220 223 223 221
351 356 357 356 355 355 355 356 356 356 355 349 336 321 306 293 285 283 281 276 275 277 275 272 273 273 274 272 258 248 243 240 231 219 209 206 206 205 205 206 208 208 210 213 214 215 216 216 216 215 215 216 219 224 226 225 223 224 224 222 221 222 223 222 221 220 219 218 219 219 220 221 221 222 222 223 223 224 225 225 223 221 221 221 220
353 359 1 358 357 356 354 354 355 354 352 346 335 325 316 304 289 279 275 274 273 273 274 273 270 267 268 265 252 243 240 238 235 227 217 211 208 206 205 205 204 205 208 211 213 214 216 216 216 216 216 216 219 222 224 223 222 223 224 223 223 224 225 225 223 222 221 221 221 220 219 220 220 219 219 220 221 223 224 225 224 223 221 220 219
356 1 3 2 1 359 356 355 355 354 352 348 338 325 321 320 310 294 280 271 266 264 266 267 264 262 261 254 243 240 237 233 232 231 227 222 217 212 209 207 206 207 210 212 212 212 211 212 213 213 214 215 217 219 219 219 220 222 225 225 224 223 223 222 221 220 220 219 219 217 217 217 218 219 219 219 221 223 224 224 223 222 221 221 221
360 4 6 6 4 2 359 358 357 357 357 353 346 336 329 330 327 315 300 278 259 254 255 256 256 256 255 249 242 241 240 236 233 233 233 230 225 221 219 217 215 213 213 213 213 212 210 209 211 213 214 215 217 219 220 219 218 219 222 224 223 221 221 221 220 220 219 219 218 218 218 219 219 220 220 220 220 221 222 223 223 222 221 221 221
4 7 9 9 7 5 3 1 1 3 4 2 359 353 347 346 342 327 314 295 260 244 240 240 242 246 249 246 240 240 241 237 233 232 233 232 228 223 222 221 218 215 214 213 213 212 211 211 212 215 217 219 220 222 222 221 219 219 220 221 221 221 220 220 219 218 218 218 219 219 219 220 221 222 222 221 220 220 221 222 222 222 223 224 221
9 12 13 11 10 10 8 7 9 10 10 11 14 13 6 2 1 353 347 356 342 275 252 245 244 245 247 242 234 235 240 236 229 227 230 232 230 225 221 220 219 217 214 212 211 211 212 212 213 214 215 218 220 221 221 221 220 219 218 218 218 219 220 220 219 218 216 217 218 218 219 220 222 224 225 224 222 221 220 220 220 221 223 223 221
15 19 18 15 15 16 15 16 18 18 17 20 25 30 31 28 24 22 29 52 54 32 254 248 247 247 245 237 226 226 234 231 223 220 221 223 228 227 222 217 216 214 212 211 211 212 213 214 214 215 216 217 219 220 220 221 222 221 220 219 220 221 221 220 219 217 216 217 218 219 220 222 222 223 224 224 225 224 222 221 221 221 220 220 220
22 26 25 22 23 23 22 25 27 26 27 33 39 43 48 51 49 46 51 65 79 97 125 171 217 225 223 221 218 219 227 227 220 217 217 215 218 226 227 220 214 212 214 215 214 214 214 215 217 218 219 220 220 220 220 221 222 222 222 222 221 222 221 219 217 217 218 218 217 218 219 220 220 221 221 221 223 224 224 223 222 221 220 219 218
25 30 32 31 31 32 33 35 36 35 37 43 49 51 54 58 60 59 59 60 63 69 76 80 89 138 191 205 206 204 210 220 219 216 216 211 209 218 224 218 210 209 213 217 216 214 214 215 216 218 219 220 220 221 221 221 220 221 221 221 219 219 218 217 217 219 220 218 217 217 218 218 218 219 219 218 219 222 223 223 223 223 222 221 218
27 31 35 37 37 39 42 44 44 43 45 50 54 57 58 60 61 63 64 63 63 64 67 71 79 97 145 181 186 187 196 206 206 204 205 205 206 215 220 217 212 209 210 213 214 213 213 215 216 216 217 219 220 221 222 222 222 222 222 221 219 218 217 217 217 218 218 217 217 217 217 216 217 218 218 218 220 223 224 224 224 224 224 222 219
30 33 36 39 40 42 46 50 51 51 52 55 57 59 60 61 61 63 65 65 66 67 67 70 77 86 97 114 127 143 168 187 193 194 194 195 197 204 210 213 213 211 210 211 212 212 212 214 216 216 217 219 221 222 223 224 224 223 223 222 221 220 220 220 220 219 217 217 217 217 216 217 218 218 218 219 221 223 224 223 223 224 224 222 219
33 37 39 42 43 44 46 50 54 56 56 58 59 59 60 61 62 63 63 64 66 69 68 67 68 68 68 75 89 109 143 170 177 173 170 174 180 188 194 198 201 204 207 210 212 213 214 215 216 218 219 221 222 224 225 226 226 226 224 223 223 223 223 222 221 220 219 218 217 217 217 217 217 218 219 219 220 221 222 221 221 222 222 220 217
33 38 41 43 46 47 46 48 52 56 57 58 59 60 60 61 62 62 62 62 63 66 67 66 65 63 61 64 73 92 120 121 109 105 109 118 132 149 168 179 185 190 196 201 206 209 212 213 215 217 219 221 222 224 225 226 228 228 228 226 224 223 223 222 222 221 220 219 218 218 217 217 218 219 219 219 219 220 221 221 221 221 221 219 218
30 36 39 42 45 48 49 48 49 52 55 56 58 59 61 62 62 62 63 63 64 64 66 67 66 63 61 63 68 77 88 87 83 83 87 90 94 106 122 135 145 156 170 182 190 196 201 205 207 209 213 217 221 224 227 228 228 228 228 227 225 223 222 222 223 223 223 223 222 222 221 221 222 221 221 221 221 221 221 221 221 221 221 220 219
29 34 38 40 43 47 49 50 50 51 53 55 56 58 59 61 63 63 64 64 64 65 66 68 68 67 66 66 69 74 79 80 80 82 84 84 85 91 96 100 106 116 130 145 160 175 187 194 198 201 205 209 213 219 224 227 229 229 228 227 225 224 223 223 223 223 223 224 224 224 224 224 223 223 223 224 223 221 222 222 221 219 219 218 217
28 31 35 38 40 43 46 48 50 51 52 53 55 56 57 59 60 62 63 63 64 65 65 66 68 70 70 69 71 74 76 75 76 78 81 82 85 87 89 92 95 100 108 117 125 137 156 172 182 190 196 200 204 208 213 218 222 226 228 229 228 227 227 227 227 227 226 226 226 225 225 224 223 223 224 223 222 220 221 222 221 219 216 216 215
31 32 34 37 40 42 43 45 48 49 50 51 52 54 55 56 57 58 59 61 61 62 63 64 65 67 68 69 70 72 73 73 73 73 74 76 78 80 82 85 87 90 96 101 105 111 124 140 154 167 178 186 193 199 205 210 214 218 222 226 227 227 228 229 230 230 230 229 228 226 225 224 224 224 223 223 221 220 221 221 221 218 216 215 214
34 35 36 37 39 41 43 44 46 47 49 50 51 52 53 54 55 56 57 58 58 59 60 61 62 63 65 66 67 68 69 69 70 71 72 72 72 73 74 77 80 84 88 90 92 98 108 117 128 142 158 172 182 190 197 203 208 212 215 218 221 223 225 227 228 229 230 229 228 227 225 224 224 224 224 223 222 221 220 221 221 219 216 214 213
38 39 39 39 39 41 43 44 46 47 47 48 49 50 50 51 52 53 54 55 56 57 57 58 59 59 60 62 63 64 65 66 68 69 70 70 71 71 71 72 73 75 77 79 82 86 92 98 105 116 131 145 157 173 185 193 199 205 209 212 215 218 220 222 225 226 227 229 229 228 227 226 226 226 225 225 224 223 222 222 222 220 217 215 213
41 43 43 43 43 43 43 45 46 47 48 49 49 49 49 50 51 51 51 52 53 54 54 55 56 57 58 59 60 61 62 63 65 66 67 68 69 70 70 70 71 71 72 74 76 80 83 85 88 93 101 106 108 121 146 164 177 192 199 203 208 213 215 218 221 223 225 227 229 229 228 228 227 227 227 227 227 227 226 224 224 223 221 218 217
43 44 44 45 46 46 45 45 46 47 48 49 50 50 50 51 51 52 52 52 52 53 53 53 54 55 56 57 57 58 59 61 62 63 64 65 66 67 68 69 70 70 70 71 72 75 78 80 82 84 90 94 93 93 97 107 123 150 172 182 191 201 208 213 217 218 220 223 226 227 228 227 227 226 227 227 228 228 227 225 224 224 223 222 221
41 43 44 45 45 46 46 46 46 46 47 48 49 50 50 51 51 51 51 51 52 52 52 53 54 54 55 55 56 57 58 59 60 61 62 62 63 64 65 66 67 68 69 69 71 71 72 75 78 81 85 89 91 90 87 88 96 108 118 127 139 160 188 205 211 212 213 216 220 223 225 226 226 224 223 222 222 222 222 221 221 221 220 220 220
39 41 43 44 44 44 45 45 46 46 46 46 47 48 49 49 50 50 50 50 51 51 51 51 52 53 53 54 55 55 56 56 57 58 58 59 59 61 61 62 63 64 64 65 66 67 67 69 73 76 80 83 87 89 88 86 86 87 89 90 93 102 124 156 176 189 198 203 208 212 216 218 218 217 216 214 214 215 217 218 219 218 217 217 216
38 39 40 41 43 43 44 45 46 46 46 46 46 47 47 47 48 48 49 49 49 49 49 49 49 50 51 52 52 53 53 54 54 55 56 56 56 57 58 59 60 60 61 62 63 64 64 64 65 68 73 76 79 83 86 85 82 81 81 82 84 89 97 108 120 134 156 175 185 191 195 198 200 202 203 203 205 207 210 213 214 213 212 211 209
36 37 37 38 38 39 41 42 43 43 43 44 44 44 45 46 46 46 46 47 47 47 47 47 48 48 48 49 50 51 52 52 53 53 54 54 54 55 55 56 57 58 58 59 60 61 62 62 61 61 65 69 72 74 77 79 79 80 81 82 84 86 90 94 97 101 107 120 137 151 162 171 175 177 177 180 183 187 192 197 198 198 196 195 192